Vertical_Velocity
7 19 5 -3 -12 3 41 4 9 -5 5 -11 6 1 -2 -0 -5 1 -4 -4 -1 1 1 -2 -3 -1 -1 -1 -1 -1 -1 -1 0 0 0 1 1 -2
-6 -2 5 11 1 -0 -0 7 -5 -1 -0 0 3 16 -7 5 -2 -2 1 -0 -3 5 -0 -3 -2 -5 -3 -3 -3 -5 -4 -2 -1 0 0 -2 -3 -3
3 14 -10 36 19 8 -8 -0 -0 6 -0 8 3 4 3 3 3 -2 -7 -3 -1 -1 -3 -3 -3 -4 -4 -3 -5 -5 -2 -3 -2 -2 -3 -3 -4 -3
3 3 -1 4 34 9 -4 4 -4 5 -0 1 -0 1 -1 2 -5 -11 -3 0 -2 -0 -3 -2 -2 -5 -5 -6 -4 -2 -4 -3 -2 -2 -3 -3 -2 -2
-2 -1 -3 -5 -1 -2 0 1 -1 -6 2 6 -0 -8 -3 4 3 1 -0 1 4 -2 -2 -1 -4 -3 -6 -5 -2 -2 -2 -2 -4 -3 -3 -3 -2 -1
3 -2 -1 -1 4 -1 -2 2 4 -2 -1 -1 -1 -2 -1 2 -1 1 5 -1 3 -4 -3 0 -5 -1 -7 -3 -4 -4 -5 -4 -5 -3 -4 -3 -2 -4
-2 -2 1 -4 -2 3 4 1 4 -3 -2 -3 -1 -1 1 -0 -4 -1 -2 -2 6 -7 -3 6 -4 -5 -1 -0 -2 -4 -4 -4 -2 -4 -4 -5 -6 -6
0 -0 -2 -0 0 -1 1 -1 -6 -3 3 4 2 1 -1 -1 0 2 -2 -3 3 3 -2 7 -11 2 0 1 -4 -4 -4 -5 -4 -8 -3 -5 -5 -2
2 0 2 0 0 -1 -5 -1 -0 2 2 -1 -0 -0 0 0 -3 1 -2 -2 1 1 -7 -0 -6 0 -2 -5 -3 -4 -4 -4 -3 -5 -4 -4 -3 -1
3 1 2 -3 -5 -1 1 3 -2 -4 -2 3 -2 -0 1 1 -3 -0 1 0 2 4 -7 -2 -2 -0 2 -1 0 -1 -2 -6 -5 -5 -6 -4 -2 -2
0 -5 -3 -1 -1 0 0 2 -1 -1 2 -1 -1 -1 -1 -0 0 0 -1 -4 -1 7 2 -4 0 -2 0 2 2 6 1 1 -0 -4 -3 -2 -2 -3
-1 -0 1 1 1 -0 -2 -1 2 1 0 -3 -3 -3 -2 -3 -3 -4 -2 -1 -4 2 -3 -4 0 -10 -5 9 1 -2 -2 -2 -2 -1 -2 -2 -3 -5
2 0 -0 -2 -2 -1 1 2 2 1 1 -2 -4 -4 -3 -2 -1 -0 -2 -4 -1 -2 -2 -6 1 -0 -7 -17 4 -0 -2 -1 -1 -0 -2 -1 -2 -5
-2 -2 -1 -1 1 2 1 -0 -1 -2 -3 -2 -2 -1 0 0 -2 -2 -1 -2 -0 -3 -3 -5 -7 -5 -6 -3 -7 4 0 -1 -4 0 0 2 3 2
-1 -0 1 1 0 -1 -1 -2 -2 -2 -2 -2 -1 -1 -2 -1 -1 0 0 -2 2 2 -2 -2 -6 -4 -2 -2 -15 3 -13 12 -0 -1 2 1 0 -0
-1 -1 -1 -0 0 -0 -1 -2 -2 -2 -1 -1 -2 -1 0 -1 -2 -3 -2 -2 -2 6 2 -4 -2 -2 0 -1 -9 -2 3 -15 2 -0 -3 -0 -3 0
-1 -0 -1 -1 -2 -2 -2 -1 -1 -1 -1 -1 -2 -1 -2 -2 -2 -4 -3 -1 -3 -7 4 3 -3 -2 1 4 -7 1 -4 0 -3 -3 -2 3 11 -2
-2 -2 -2 -2 -2 -2 -1 -1 -1 -1 -2 -2 -2 -1 -1 -1 -1 -0 -2 -3 -5 -1 -4 -5 -4 1 7 9 -6 0 6 1 4 1 -2 -11 1 6
-1 -1 -1 -2 -1 -1 -1 -2 -2 -2 -2 -1 -1 -2 -1 -1 -1 1 0 -1 2 -2 0 1 -2 -4 -3 -2 10 9 -16 2 -3 4 -1 2 -3 8
-1 -1 -1 -1 0 -2 -1 -0 -1 -0 -1 -1 -2 -3 -2 -2 -0 -0 -1 -2 -1 0 3 4 0 1 -6 -12 -14 16 10 -6 -6 -2 -2 0 -1 -1
-1 -2 -1 -1 -1 -1 -1 -1 -2 -0 -0 0 0 -1 -1 -2 -1 -1 -0 1 -2 -2 2 5 3 2 2 -1 -6 0 10 5 -1 -8 3 -4 -7 -7
-1 -2 -0 -1 -2 -1 -1 0 -1 -2 -1 -1 -0 -1 -1 -1 -1 0 0 -1 1 1 1 3 1 -4 1 0 -1 -4 -1 10 12 2 6 3 -6 -22
-1 -0 -0 1 -1 -1 -1 -1 -0 -0 -1 -0 0 1 -0 0 0 1 1 1 0 1 -6 -0 3 5 4 -1 -5 -0 -1 1 1 5 18 3 4 3
Height
3081 3077 3079 3079 3079 3078 3069 3076 3074 3075 3072 3072 3066 3065 3062 3060 3058 3057 3057 3054 3051 3049 3045 3041 3036 3033 3029 3025 3022 3020 3016 3012 3009 3005 3001 2998 2996 2993
3068 3069 3069 3069 3066 3069 3068 3066 3063 3064 3062 3059 3054 3053 3053 3051 3049 3047 3043 3042 3039 3036 3031 3027 3023 3018 3014 3010 3007 3003 2998 2994 2990 2986 2982 2980 2977 2976
3062 3060 3058 3051 3055 3057 3059 3057 3056 3053 3050 3048 3043 3042 3043 3041 3039 3035 3033 3030 3026 3023 3019 3014 3009 3005 3000 2995 2991 2986 2982 2977 2973 2970 2967 2965 2963 2962
3054 3055 3055 3053 3047 3048 3048 3048 3046 3041 3041 3039 3038 3035 3033 3031 3029 3026 3023 3019 3015 3012 3006 3000 2995 2990 2985 2980 2975 2972 2968 2964 2961 2958 2956 2953 2950 2948
3046 3047 3047 3045 3044 3042 3041 3038 3036 3033 3033 3031 3029 3027 3025 3023 3019 3015 3011 3008 3004 2999 2993 2987 2982 2976 2972 2968 2964 2960 2956 2952 2948 2945 2941 2939 2936 2935
3039 3039 3038 3037 3036 3033 3032 3029 3028 3026 3023 3021 3019 3017 3013 3010 3006 3002 3000 2995 2991 2987 2980 2974 2970 2964 2961 2955 2952 2948 2944 2939 2935 2931 2928 2925 2923 2921
3031 3031 3030 3030 3027 3024 3023 3022 3020 3017 3014 3013 3010 3005 3003 2999 2994 2990 2986 2982 2979 2973 2967 2965 2959 2955 2951 2947 2944 2939 2934 2928 2923 2919 2916 2914 2911 2907
3024 3023 3022 3021 3019 3018 3017 3015 3012 3009 3007 3004 3001 2997 2993 2989 2983 2979 2974 2969 2966 2963 2955 2954 2947 2945 2942 2939 2935 2929 2922 2917 2912 2909 2905 2903 2899 2894
3015 3015 3014 3014 3013 3012 3010 3008 3005 3002 2997 2995 2991 2987 2981 2976 2972 2967 2962 2957 2955 2951 2945 2942 2940 2937 2933 2930 2925 2919 2912 2906 2901 2898 2894 2891 2887 2883
3011 3011 3010 3008 3007 3004 3003 3001 2998 2993 2989 2985 2979 2974 2970 2966 2960 2957 2954 2950 2948 2945 2939 2931 2931 2925 2923 2920 2914 2908 2901 2896 2890 2885 2882 2879 2876 2873
3007 3006 3005 3003 3001 2999 2996 2992 2988 2984 2979 2973 2968 2964 2960 2956 2952 2949 2945 2942 2939 2939 2932 2922 2923 2914 2912 2912 2906 2900 2895 2889 2882 2877 2874 2869 2866 2863
3005 3003 3001 2997 2994 2990 2986 2982 2978 2974 2969 2963 2959 2954 2951 2949 2946 2943 2940 2936 2932 2928 2922 2911 2915 2906 2897 2904 2897 2891 2885 2879 2873 2869 2865 2860 2856 2852
3000 2997 2993 2990 2986 2981 2976 2971 2966 2962 2958 2954 2951 2949 2947 2944 2942 2939 2935 2930 2925 2921 2914 2904 2902 2898 2892 2885 2888 2882 2875 2871 2865 2861 2857 2852 2848 2844
2995 2992 2987 2982 2977 2972 2966 2961 2957 2953 2951 2949 2947 2946 2944 2941 2938 2935 2930 2925 2918 2912 2909 2900 2894 2890 2886 2881 2875 2875 2868 2863 2857 2853 2849 2846 2842 2837
2989 2984 2977 2972 2966 2961 2956 2953 2950 2949 2948 2947 2945 2943 2941 2938 2934 2930 2926 2921 2916 2909 2902 2896 2889 2885 2879 2873 2867 2865 2857 2857 2851 2846 2843 2838 2834 2829
2980 2973 2967 2962 2957 2953 2950 2949 2948 2947 2946 2945 2942 2939 2936 2933 2928 2925 2921 2916 2912 2906 2899 2891 2885 2877 2872 2867 2862 2857 2853 2846 2845 2841 2837 2833 2829 2823
2971 2964 2959 2953 2950 2949 2948 2947 2947 2945 2943 2941 2939 2936 2932 2928 2924 2919 2913 2909 2904 2899 2895 2888 2879 2871 2865 2859 2857 2851 2847 2843 2839 2836 2831 2827 2824 2818
2963 2957 2952 2949 2947 2947 2946 2946 2944 2942 2940 2938 2935 2932 2928 2924 2920 2914 2908 2902 2897 2892 2887 2881 2874 2868 2862 2856 2850 2845 2840 2835 2832 2828 2824 2818 2817 2812
2957 2953 2950 2948 2947 2946 2945 2943 2942 2940 2937 2934 2931 2927 2923 2919 2915 2909 2904 2897 2892 2886 2880 2874 2867 2858 2850 2846 2845 2839 2833 2828 2823 2820 2817 2812 2808 2806
2953 2950 2948 2947 2946 2945 2944 2942 2939 2937 2934 2931 2927 2923 2919 2915 2910 2904 2898 2892 2886 2881 2874 2868 2860 2854 2847 2839 2833 2834 2827 2821 2817 2813 2810 2805 2801 2796
2950 2948 2947 2946 2944 2943 2942 2939 2937 2934 2931 2928 2924 2919 2915 2910 2905 2899 2893 2887 2880 2874 2868 2862 2856 2849 2842 2834 2828 2825 2822 2815 2809 2804 2801 2796 2792 2789
2946 2945 2944 2944 2942 2941 2939 2936 2933 2930 2926 2923 2919 2915 2910 2905 2900 2894 2888 2881 2876 2869 2862 2856 2850 2842 2836 2828 2822 2816 2813 2809 2803 2798 2794 2789 2784 2777
2943 2942 2941 2940 2939 2937 2935 2932 2929 2926 2922 2918 2914 2910 2905 2901 2895 2889 2883 2877 2870 2863 2855 2848 2842 2836 2829 2822 2815 2809 2804 2800 2794 2791 2789 2782 2777 2770